Time,TemperatureF,DewpointF,PressureIn,WindDirection,WindDirectionDegrees,WindSpeedMPH,WindSpeedGustMPH,Humidity,HourlyPrecipIn,Conditions,Clouds,dailyrainin,SoftwareType,DateUTC
2013-04-24 00:00:00,67.7,62.0,30.11,South,188,0.0,0.0,82,0.00,,,0.00,Wunderground v.1.15,2013-04-24 04:00:00,
2013-04-24 00:05:00,67.5,62.2,30.12,South,188,0.0,0.0,83,0.00,,,0.00,Wunderground v.1.15,2013-04-24 04:05:00,
2013-04-24 00:10:00,67.3,62.0,30.11,South,188,0.0,0.0,83,0.00,,,0.00,Wunderground v.1.15,2013-04-24 04:10:00,
2013-04-24 00:15:00,67.1,62.1,30.11,South,188,0.0,0.0,84,0.00,,,0.00,Wunderground v.1.15,2013-04-24 04:15:00,
2013-04-24 00:25:00,66.8,62.1,30.11,South,188,0.0,0.0,85,0.00,,,0.00,Wunderground v.1.15,2013-04-24 04:25:00,
2013-04-24 00:30:00,66.6,61.9,30.10,South,188,0.0,0.0,85,0.00,,,0.00,Wunderground v.1.15,2013-04-24 04:30:00,
2013-04-24 00:35:00,66.5,61.8,30.10,South,188,0.0,0.0,85,0.00,,,0.00,Wunderground v.1.15,2013-04-24 04:35:00,
2013-04-24 00:40:00,66.2,61.9,30.10,South,188,0.0,0.0,86,0.00,,,0.00,Wunderground v.1.15,2013-04-24 04:40:00,
2013-04-24 00:45:00,66.2,61.9,30.10,South,188,0.0,0.0,86,0.00,,,0.00,Wunderground v.1.15,2013-04-24 04:45:00,
2013-04-24 00:55:00,66.0,61.7,30.10,South,188,0.0,0.0,86,0.00,,,0.00,Wunderground v.1.15,2013-04-24 04:55:00,
2013-04-24 01:00:00,65.9,61.6,30.09,South,188,0.0,0.0,86,0.00,,,0.00,Wunderground v.1.15,2013-04-24 05:00:00,
2013-04-24 01:10:00,65.7,61.7,30.09,South,188,0.0,0.0,87,0.00,,,0.00,Wunderground v.1.15,2013-04-24 05:10:00,
2013-04-24 01:15:00,65.7,61.4,30.09,South,188,0.0,0.0,86,0.00,,,0.00,Wunderground v.1.15,2013-04-24 05:15:00,
2013-04-24 01:20:00,65.7,61.7,30.10,South,188,0.0,0.0,87,0.00,,,0.00,Wunderground v.1.15,2013-04-24 05:20:00,
2013-04-24 01:30:00,65.5,61.5,30.09,South,188,0.0,0.0,87,0.00,,,0.00,Wunderground v.1.15,2013-04-24 05:30:00,
2013-04-24 01:35:00,65.4,61.4,30.09,South,188,0.0,0.0,87,0.00,,,0.00,Wunderground v.1.15,2013-04-24 05:35:00,
2013-04-24 01:40:00,65.4,61.4,30.09,South,188,0.0,0.0,87,0.00,,,0.00,Wunderground v.1.15,2013-04-24 05:40:00,
2013-04-24 01:45:00,65.4,61.4,30.09,South,188,0.0,0.0,87,0.00,,,0.00,Wunderground v.1.15,2013-04-24 05:45:00,
2013-04-24 01:50:00,65.4,61.4,30.09,South,188,0.0,0.0,87,0.00,,,0.00,Wunderground v.1.15,2013-04-24 05:50:00,
2013-04-24 02:01:00,65.5,61.5,30.08,South,188,0.0,0.0,87,0.00,,,0.00,Wunderground v.1.15,2013-04-24 06:01:00,
2013-04-24 02:10:00,65.2,61.6,30.08,South,188,0.0,0.0,88,0.00,,,0.00,Wunderground v.1.15,2013-04-24 06:10:00,
2013-04-24 02:15:00,65.2,61.6,30.08,South,188,0.0,0.0,88,0.00,,,0.00,Wunderground v.1.15,2013-04-24 06:15:00,
2013-04-24 02:25:00,65.0,61.4,30.08,South,188,0.0,0.0,88,0.00,,,0.00,Wunderground v.1.15,2013-04-24 06:25:00,
2013-04-24 02:30:00,65.0,61.4,30.08,South,188,0.0,0.0,88,0.00,,,0.00,Wunderground v.1.15,2013-04-24 06:30:00,
2013-04-24 02:35:00,65.1,61.5,30.08,South,188,0.0,0.0,88,0.00,,,0.00,Wunderground v.1.15,2013-04-24 06:35:00,
2013-04-24 02:45:00,64.9,61.3,30.08,South,188,0.0,0.0,88,0.00,,,0.00,Wunderground v.1.15,2013-04-24 06:45:00,
2013-04-24 02:50:00,64.8,61.2,30.08,South,188,0.0,0.0,88,0.00,,,0.00,Wunderground v.1.15,2013-04-24 06:50:00,
2013-04-24 02:55:00,64.8,61.2,30.07,South,188,0.0,0.0,88,0.00,,,0.00,Wunderground v.1.15,2013-04-24 06:55:00,
2013-04-24 03:00:00,64.7,61.4,30.07,South,188,0.0,0.0,89,0.00,,,0.00,Wunderground v.1.15,2013-04-24 07:00:00,
2013-04-24 03:10:00,64.7,61.1,30.07,South,188,0.0,0.0,88,0.00,,,0.00,Wunderground v.1.15,2013-04-24 07:10:00,
2013-04-24 03:15:00,64.7,61.1,30.07,South,188,0.0,0.0,88,0.00,,,0.00,Wunderground v.1.15,2013-04-24 07:15:00,
2013-04-24 03:25:00,64.4,61.1,30.07,South,189,0.0,0.0,89,0.00,,,0.00,Wunderground v.1.15,2013-04-24 07:25:00,
2013-04-24 03:30:00,64.4,61.1,30.07,South,190,0.0,0.0,89,0.00,,,0.00,Wunderground v.1.15,2013-04-24 07:30:00,
2013-04-24 03:35:00,64.3,61.0,30.07,SSW,193,0.0,0.0,89,0.00,,,0.00,Wunderground v.1.15,2013-04-24 07:35:00,
2013-04-24 03:45:00,64.2,61.2,30.07,SSW,196,0.0,0.0,90,0.00,,,0.00,Wunderground v.1.15,2013-04-24 07:45:00,
2013-04-24 03:50:00,64.3,61.3,30.07,SSW,197,0.0,0.0,90,0.00,,,0.00,Wunderground v.1.15,2013-04-24 07:50:00,
2013-04-24 03:55:00,64.3,61.3,30.07,SSW,200,0.0,0.0,90,0.00,,,0.00,Wunderground v.1.15,2013-04-24 07:55:00,
2013-04-24 04:00:00,64.5,61.5,30.08,SSW,201,0.0,0.0,90,0.00,,,0.00,Wunderground v.1.15,2013-04-24 08:00:00,
2013-04-24 04:10:00,64.5,61.5,30.08,SSW,201,0.0,0.0,90,0.00,,,0.00,Wunderground v.1.15,2013-04-24 08:10:00,
2013-04-24 04:20:00,64.3,61.6,30.07,SSW,202,0.0,0.0,91,0.00,,,0.00,Wunderground v.1.15,2013-04-24 08:20:00,
2013-04-24 04:25:00,64.3,61.6,30.07,SSW,202,0.0,0.0,91,0.00,,,0.00,Wunderground v.1.15,2013-04-24 08:25:00,
2013-04-24 04:30:00,64.2,61.8,30.08,SSW,202,0.0,0.0,92,0.00,,,0.00,Wunderground v.1.15,2013-04-24 08:30:00,
2013-04-24 04:35:00,64.1,61.7,30.08,SSW,203,0.0,0.0,92,0.00,,,0.00,Wunderground v.1.15,2013-04-24 08:35:00,
2013-04-24 04:40:00,64.1,61.7,30.08,SSW,203,0.0,0.0,92,0.00,,,0.00,Wunderground v.1.15,2013-04-24 08:40:00,
2013-04-24 04:50:00,64.2,61.8,30.08,SSW,203,0.0,0.0,92,0.00,,,0.00,Wunderground v.1.15,2013-04-24 08:50:00,
2013-04-24 04:55:00,64.1,62.0,30.08,SSW,203,0.0,0.0,93,0.00,,,0.00,Wunderground v.1.15,2013-04-24 08:55:00,
2013-04-24 05:00:00,63.9,61.8,30.08,SSW,204,0.0,0.0,93,0.00,,,0.00,Wunderground v.1.15,2013-04-24 09:00:00,
2013-04-24 05:10:00,63.6,61.8,30.08,SSW,205,0.0,0.0,94,0.00,,,0.00,Wunderground v.1.15,2013-04-24 09:10:00,
2013-04-24 05:15:00,63.6,61.8,30.08,SSW,205,0.0,0.0,94,0.00,,,0.00,Wunderground v.1.15,2013-04-24 09:15:00,
2013-04-24 05:25:00,63.4,61.6,30.08,SSW,206,0.0,0.0,94,0.00,,,0.00,Wunderground v.1.15,2013-04-24 09:25:00,
2013-04-24 05:30:00,63.3,61.5,30.08,SW,215,0.0,0.0,94,0.00,,,0.00,Wunderground v.1.15,2013-04-24 09:30:00,
2013-04-24 05:35:00,63.3,61.5,30.08,SW,215,0.0,0.0,94,0.00,,,0.00,Wunderground v.1.15,2013-04-24 09:35:00,
2013-04-24 05:40:00,63.3,61.5,30.08,SW,217,0.0,0.0,94,0.00,,,0.00,Wunderground v.1.15,2013-04-24 09:40:00,
2013-04-24 05:45:00,63.3,61.5,30.09,SW,218,0.0,0.0,94,0.00,,,0.00,Wunderground v.1.15,2013-04-24 09:45:00,
2013-04-24 05:50:00,63.4,61.6,30.08,SW,223,0.0,2.0,94,0.00,,,0.00,Wunderground v.1.15,2013-04-24 09:50:00,
2013-04-24 06:00:00,63.3,61.5,30.09,SW,232,0.0,0.0,94,0.00,,,0.00,Wunderground v.1.15,2013-04-24 10:00:00,
2013-04-24 06:10:00,63.3,61.5,30.09,SW,236,0.0,0.0,94,0.00,,,0.00,Wunderground v.1.15,2013-04-24 10:10:00,
2013-04-24 06:15:00,63.4,61.6,30.09,WSW,238,0.0,0.0,94,0.00,,,0.00,Wunderground v.1.15,2013-04-24 10:15:00,
2013-04-24 06:20:00,63.6,61.8,30.09,WSW,239,0.0,0.0,94,0.00,,,0.00,Wunderground v.1.15,2013-04-24 10:20:00,
2013-04-24 06:25:00,63.5,61.4,30.10,WSW,239,0.0,0.0,93,0.00,,,0.00,Wunderground v.1.15,2013-04-24 10:25:00,
2013-04-24 06:30:00,63.3,61.2,30.10,WSW,240,0.0,0.0,93,0.00,,,0.00,Wunderground v.1.15,2013-04-24 10:30:00,
2013-04-24 06:35:00,63.1,61.0,30.09,WSW,244,0.0,4.0,93,0.00,,,0.00,Wunderground v.1.15,2013-04-24 10:35:00,
2013-04-24 06:40:00,63.0,61.2,30.09,WSW,244,0.0,0.0,94,0.00,,,0.00,Wunderground v.1.15,2013-04-24 10:40:00,
2013-04-24 06:45:00,63.0,61.2,30.09,WSW,244,0.0,0.0,94,0.00,,,0.00,Wunderground v.1.15,2013-04-24 10:45:00,
2013-04-24 06:50:00,63.0,61.2,30.10,WSW,244,0.0,0.0,94,0.00,,,0.00,Wunderground v.1.15,2013-04-24 10:50:00,
2013-04-24 06:55:00,62.9,61.1,30.10,WSW,244,0.0,0.0,94,0.00,,,0.00,Wunderground v.1.15,2013-04-24 10:55:00,
2013-04-24 07:00:00,62.7,60.9,30.10,WSW,244,0.0,0.0,94,0.00,,,0.00,Wunderground v.1.15,2013-04-24 11:00:00,
2013-04-24 07:10:00,62.6,60.8,30.11,WSW,244,0.0,0.0,94,0.00,,,0.00,Wunderground v.1.15,2013-04-24 11:10:00,
2013-04-24 07:15:00,62.6,60.8,30.11,WSW,244,0.0,0.0,94,0.00,,,0.00,Wunderground v.1.15,2013-04-24 11:15:00,
2013-04-24 07:20:00,62.7,60.9,30.11,WSW,244,0.0,0.0,94,0.00,,,0.00,Wunderground v.1.15,2013-04-24 11:20:00,
2013-04-24 07:25:00,62.8,61.0,30.11,WSW,245,0.0,0.0,94,0.00,,,0.00,Wunderground v.1.15,2013-04-24 11:25:00,
2013-04-24 07:30:00,63.0,61.2,30.11,WSW,245,0.0,0.0,94,0.00,,,0.00,Wunderground v.1.15,2013-04-24 11:30:00,
2013-04-24 07:40:00,63.3,61.5,30.11,WSW,245,0.0,0.0,94,0.00,,,0.00,Wunderground v.1.15,2013-04-24 11:40:00,
2013-04-24 07:45:00,63.7,61.6,30.12,WSW,245,0.0,0.0,93,0.00,,,0.00,Wunderground v.1.15,2013-04-24 11:45:00,
2013-04-24 07:50:00,63.9,61.8,30.12,WSW,245,0.0,0.0,93,0.00,,,0.00,Wunderground v.1.15,2013-04-24 11:50:00,
2013-04-24 07:55:00,64.3,61.9,30.12,WSW,245,0.0,0.0,92,0.00,,,0.00,Wunderground v.1.15,2013-04-24 11:55:00,
2013-04-24 08:00:00,64.6,62.2,30.12,WSW,245,0.0,1.0,92,0.00,,,0.00,Wunderground v.1.15,2013-04-24 12:00:00,
2013-04-24 08:10:00,65.5,62.8,30.13,WSW,245,0.0,1.0,91,0.00,,,0.00,Wunderground v.1.15,2013-04-24 12:10:00,
2013-04-24 08:15:00,65.9,62.9,30.12,WSW,245,0.0,1.0,90,0.00,,,0.00,Wunderground v.1.15,2013-04-24 12:15:00,
2013-04-24 08:20:00,66.3,63.3,30.12,WSW,245,0.0,1.0,90,0.00,,,0.00,Wunderground v.1.15,2013-04-24 12:20:00,
2013-04-24 08:25:00,67.0,63.6,30.13,WSW,245,0.0,1.0,89,0.00,,,0.00,Wunderground v.1.15,2013-04-24 12:25:00,
2013-04-24 08:30:00,67.6,63.9,30.13,WSW,245,0.0,1.0,88,0.00,,,0.00,Wunderground v.1.15,2013-04-24 12:30:00,
2013-04-24 08:35:00,68.3,64.3,30.13,WSW,245,0.0,1.0,87,0.00,,,0.00,Wunderground v.1.15,2013-04-24 12:35:00,
2013-04-24 08:40:00,69.0,64.6,30.13,WSW,245,0.0,1.0,86,0.00,,,0.00,Wunderground v.1.15,2013-04-24 12:40:00,
2013-04-24 08:45:00,69.4,64.4,30.13,WSW,245,0.0,1.0,84,0.00,,,0.00,Wunderground v.1.15,2013-04-24 12:45:00,
2013-04-24 08:50:00,69.8,64.7,30.13,WSW,245,0.0,1.0,84,0.00,,,0.00,Wunderground v.1.15,2013-04-24 12:50:00,
2013-04-24 08:55:00,70.3,64.5,30.14,WSW,245,0.0,1.0,82,0.00,,,0.00,Wunderground v.1.15,2013-04-24 12:55:00,
2013-04-24 09:00:00,70.8,65.0,30.13,WSW,245,0.0,0.0,82,0.00,,,0.00,Wunderground v.1.15,2013-04-24 13:00:00,
2013-04-24 09:10:00,72.6,65.3,30.14,WSW,245,0.0,0.0,78,0.00,,,0.00,Wunderground v.1.15,2013-04-24 13:10:00,
2013-04-24 09:20:00,74.6,65.0,30.14,WSW,245,0.0,0.0,72,0.00,,,0.00,Wunderground v.1.15,2013-04-24 13:20:00,
2013-04-24 09:25:00,75.2,65.1,30.14,WSW,245,0.0,0.0,71,0.00,,,0.00,Wunderground v.1.15,2013-04-24 13:25:00,
2013-04-24 09:30:00,75.6,64.3,30.15,WSW,245,0.0,0.0,68,0.00,,,0.00,Wunderground v.1.15,2013-04-24 13:30:00,
2013-04-24 09:35:00,75.9,64.6,30.14,WSW,245,0.0,0.0,68,0.00,,,0.00,Wunderground v.1.15,2013-04-24 13:35:00,
2013-04-24 09:40:00,76.7,64.9,30.14,WSW,245,0.0,0.0,67,0.00,,,0.00,Wunderground v.1.15,2013-04-24 13:40:00,
2013-04-24 09:45:00,77.2,64.1,30.14,WSW,245,0.0,0.0,64,0.00,,,0.00,Wunderground v.1.15,2013-04-24 13:45:00,
2013-04-24 09:50:00,77.3,64.2,30.14,WSW,244,0.0,3.0,64,0.00,,,0.00,Wunderground v.1.15,2013-04-24 13:50:00,
2013-04-24 10:00:00,77.0,63.9,30.14,SSW,200,3.0,3.0,64,0.00,,,0.00,Wunderground v.1.15,2013-04-24 14:00:00,
2013-04-24 10:10:00,77.5,64.4,30.14,South,170,1.0,1.0,64,0.00,,,0.00,Wunderground v.1.15,2013-04-24 14:10:00,
2013-04-24 10:15:00,77.9,63.8,30.14,South,171,1.0,5.0,62,0.00,,,0.00,Wunderground v.1.15,2013-04-24 14:15:00,
2013-04-24 10:25:00,77.8,63.7,30.15,SSE,147,5.0,8.0,62,0.00,,,0.00,Wunderground v.1.15,2013-04-24 14:25:00,
2013-04-24 10:30:00,77.9,63.8,30.15,SE,134,5.0,5.0,62,0.00,,,0.00,Wunderground v.1.15,2013-04-24 14:30:00,
2013-04-24 10:35:00,78.4,64.3,30.15,SE,132,5.0,5.0,62,0.00,,,0.00,Wunderground v.1.15,2013-04-24 14:35:00,
2013-04-24 10:40:00,78.2,64.1,30.15,SE,140,5.0,8.0,62,0.00,,,0.00,Wunderground v.1.15,2013-04-24 14:40:00,
2013-04-24 10:45:00,78.6,63.6,30.15,ESE,109,6.0,8.0,60,0.00,,,0.00,Wunderground v.1.15,2013-04-24 14:45:00,
2013-04-24 10:55:00,78.7,64.1,30.15,SE,128,4.0,5.0,61,0.00,,,0.00,Wunderground v.1.15,2013-04-24 14:55:00,
2013-04-24 11:00:00,79.0,63.9,30.15,SSE,153,4.0,15.0,60,0.00,,,0.00,Wunderground v.1.15,2013-04-24 15:00:00,
2013-04-24 11:10:00,79.4,64.3,30.14,SSE,150,5.0,5.0,60,0.00,,,0.00,Wunderground v.1.15,2013-04-24 15:10:00,
2013-04-24 11:15:00,80.3,64.2,30.14,ESE,115,2.0,7.0,58,0.00,,,0.00,Wunderground v.1.15,2013-04-24 15:15:00,
2013-04-24 11:20:00,80.3,64.2,30.14,East,85,4.0,4.0,58,0.00,,,0.00,Wunderground v.1.15,2013-04-24 15:20:00,
2013-04-24 11:30:00,80.6,64.9,30.14,SE,130,3.0,15.0,59,0.00,,,0.00,Wunderground v.1.15,2013-04-24 15:30:00,
2013-04-24 11:35:00,80.5,64.9,30.14,SSE,150,3.0,15.0,59,0.00,,,0.00,Wunderground v.1.15,2013-04-24 15:35:00,
2013-04-24 11:40:00,80.5,63.9,30.14,ESE,116,4.0,4.0,57,0.00,,,0.00,Wunderground v.1.15,2013-04-24 15:40:00,
2013-04-24 11:45:00,80.7,64.1,30.14,SE,138,5.0,7.0,57,0.00,,,0.00,Wunderground v.1.15,2013-04-24 15:45:00,
2013-04-24 11:50:00,81.1,63.9,30.14,SE,142,4.0,4.0,56,0.00,,,0.00,Wunderground v.1.15,2013-04-24 15:50:00,
2013-04-24 11:55:00,81.5,64.8,30.14,SE,124,2.0,15.0,57,0.00,,,0.00,Wunderground v.1.15,2013-04-24 15:55:00,
2013-04-24 12:01:00,80.9,63.7,30.13,SSE,166,4.0,4.0,56,0.00,,,0.00,Wunderground v.1.15,2013-04-24 16:01:00,
2013-04-24 12:10:00,81.4,64.2,30.13,SE,142,4.0,10.0,56,0.00,,,0.00,Wunderground v.1.15,2013-04-24 16:10:00,
2013-04-24 12:20:00,81.6,64.9,30.13,East,96,5.0,8.0,57,0.00,,,0.00,Wunderground v.1.15,2013-04-24 16:20:00,
2013-04-24 12:25:00,81.5,64.3,30.13,SSE,158,4.0,4.0,56,0.00,,,0.00,Wunderground v.1.15,2013-04-24 16:25:00,
2013-04-24 12:30:00,81.7,64.0,30.12,SSE,165,4.0,8.0,55,0.00,,,0.00,Wunderground v.1.15,2013-04-24 16:30:00,
2013-04-24 12:40:00,82.4,63.5,30.12,SSE,162,4.0,12.0,53,0.00,,,0.00,Wunderground v.1.15,2013-04-24 16:40:00,
2013-04-24 12:45:00,82.6,63.7,30.12,SE,127,4.0,4.0,53,0.00,,,0.00,Wunderground v.1.15,2013-04-24 16:45:00,
2013-04-24 12:50:00,83.4,65.0,30.12,SE,136,2.0,8.0,54,0.00,,,0.00,Wunderground v.1.15,2013-04-24 16:50:00,
2013-04-24 12:55:00,84.6,63.9,30.12,East,97,1.0,1.0,50,0.00,,,0.00,Wunderground v.1.15,2013-04-24 16:55:00,
2013-04-24 13:00:00,85.2,63.9,30.11,South,187,1.0,1.0,49,0.00,,,0.00,Wunderground v.1.15,2013-04-24 17:00:00,
2013-04-24 13:10:00,85.1,63.8,30.12,SE,134,2.0,7.0,49,0.00,,,0.00,Wunderground v.1.15,2013-04-24 17:10:00,
2013-04-24 13:15:00,83.4,63.4,30.11,SSE,150,3.0,7.0,51,0.00,,,0.00,Wunderground v.1.15,2013-04-24 17:15:00,
2013-04-24 13:20:00,83.6,63.0,30.11,SSE,161,2.0,7.0,50,0.00,,,0.00,Wunderground v.1.15,2013-04-24 17:20:00,
2013-04-24 13:25:00,83.8,64.8,30.11,SSE,161,1.0,7.0,53,0.00,,,0.00,Wunderground v.1.15,2013-04-24 17:25:00,
2013-04-24 13:30:00,83.5,63.5,30.11,SSE,166,3.0,7.0,51,0.00,,,0.00,Wunderground v.1.15,2013-04-24 17:30:00,
2013-04-24 13:35:00,83.6,63.0,30.11,SSE,167,3.0,7.0,50,0.00,,,0.00,Wunderground v.1.15,2013-04-24 17:35:00,
2013-04-24 13:45:00,84.8,62.9,30.10,ESE,117,2.0,7.0,48,0.00,,,0.00,Wunderground v.1.15,2013-04-24 17:45:00,
2013-04-24 13:50:00,85.8,63.2,30.10,South,183,2.0,2.0,47,0.00,,,0.00,Wunderground v.1.15,2013-04-24 17:50:00,
2013-04-24 13:55:00,87.0,63.7,30.10,South,190,1.0,7.0,46,0.00,,,0.00,Wunderground v.1.15,2013-04-24 17:55:00,
2013-04-24 14:00:00,88.0,63.4,30.10,SSW,194,0.0,1.0,44,0.00,,,0.00,Wunderground v.1.15,2013-04-24 18:00:00,
2013-04-24 14:10:00,86.7,63.4,30.10,SE,128,1.0,5.0,46,0.00,,,0.00,Wunderground v.1.15,2013-04-24 18:10:00,
2013-04-24 14:20:00,85.7,61.9,30.09,SSE,153,3.0,3.0,45,0.00,,,0.00,Wunderground v.1.15,2013-04-24 18:20:00,
2013-04-24 14:25:00,86.0,61.5,30.09,ESE,120,2.0,3.0,44,0.00,,,0.00,Wunderground v.1.15,2013-04-24 18:25:00,
2013-04-24 14:30:00,86.4,61.9,30.09,ESE,121,2.0,2.0,44,0.00,,,0.00,Wunderground v.1.15,2013-04-24 18:30:00,
2013-04-24 14:35:00,87.0,62.5,30.09,ESE,121,1.0,2.0,44,0.00,,,0.00,Wunderground v.1.15,2013-04-24 18:35:00,
2013-04-24 14:40:00,86.5,62.6,30.09,SE,124,1.0,1.0,45,0.00,,,0.00,Wunderground v.1.15,2013-04-24 18:40:00,
2013-04-24 14:50:00,88.5,61.8,30.08,SE,125,0.0,1.0,41,0.00,,,0.00,Wunderground v.1.15,2013-04-24 18:50:00,
2013-04-24 14:55:00,89.0,62.9,30.08,SE,128,0.0,1.0,42,0.00,,,0.00,Wunderground v.1.15,2013-04-24 18:55:00,
2013-04-24 15:00:00,88.1,62.8,30.08,SE,128,1.0,1.0,43,0.00,,,0.00,Wunderground v.1.15,2013-04-24 19:00:00,
2013-04-24 15:10:00,87.1,61.2,30.07,SE,136,1.0,1.0,42,0.00,,,0.00,Wunderground v.1.15,2013-04-24 19:10:00,
2013-04-24 15:15:00,87.6,59.6,30.07,SE,136,1.0,4.0,39,0.00,,,0.00,Wunderground v.1.15,2013-04-24 19:15:00,
2013-04-24 15:20:00,87.6,61.0,30.07,SE,136,1.0,1.0,41,0.00,,,0.00,Wunderground v.1.15,2013-04-24 19:20:00,
2013-04-24 15:30:00,88.8,61.4,30.07,SE,142,0.0,4.0,40,0.00,,,0.00,Wunderground v.1.15,2013-04-24 19:30:00,
2013-04-24 15:35:00,89.6,61.4,30.07,SE,142,0.0,4.0,39,0.00,,,0.00,Wunderground v.1.15,2013-04-24 19:35:00,
2013-04-24 15:40:00,90.3,61.2,30.07,SE,142,0.0,4.0,38,0.00,,,0.00,Wunderground v.1.15,2013-04-24 19:40:00,
2013-04-24 15:50:00,89.4,61.9,30.07,South,173,1.0,4.0,40,0.00,,,0.00,Wunderground v.1.15,2013-04-24 19:50:00,
2013-04-24 15:55:00,89.1,62.3,30.06,South,173,1.0,4.0,41,0.00,,,0.00,Wunderground v.1.15,2013-04-24 19:55:00,
2013-04-24 16:01:00,88.1,61.4,30.06,SE,140,2.0,2.0,41,0.00,,,0.00,Wunderground v.1.15,2013-04-24 20:01:00,
2013-04-24 16:10:00,87.1,61.2,30.06,SE,140,1.0,5.0,42,0.00,,,0.00,Wunderground v.1.15,2013-04-24 20:10:00,
2013-04-24 16:15:00,87.2,59.9,30.06,SE,140,0.0,5.0,40,0.00,,,0.00,Wunderground v.1.15,2013-04-24 20:15:00,
2013-04-24 16:20:00,87.2,58.5,30.06,SE,140,0.0,5.0,38,0.00,,,0.00,Wunderground v.1.15,2013-04-24 20:20:00,
2013-04-24 16:30:00,87.8,60.5,30.06,SE,140,0.0,5.0,40,0.00,,,0.00,Wunderground v.1.15,2013-04-24 20:30:00,
2013-04-24 16:35:00,88.4,61.0,30.06,SE,142,0.0,5.0,40,0.00,,,0.00,Wunderground v.1.15,2013-04-24 20:35:00,
2013-04-24 16:40:00,87.8,60.5,30.06,SE,144,1.0,5.0,40,0.00,,,0.00,Wunderground v.1.15,2013-04-24 20:40:00,
2013-04-24 16:45:00,87.1,60.5,30.06,SE,144,1.0,1.0,41,0.00,,,0.00,Wunderground v.1.15,2013-04-24 20:45:00,
2013-04-24 16:50:00,86.4,59.9,30.06,SE,144,0.0,5.0,41,0.00,,,0.00,Wunderground v.1.15,2013-04-24 20:50:00,
2013-04-24 16:55:00,86.1,59.6,30.06,SE,144,0.0,5.0,41,0.00,,,0.00,Wunderground v.1.15,2013-04-24 20:55:00,
2013-04-24 17:00:00,86.3,59.1,30.06,SE,144,0.0,0.0,40,0.00,,,0.00,Wunderground v.1.15,2013-04-24 21:00:00,
2013-04-24 17:10:00,86.5,59.3,30.06,SE,144,0.0,0.0,40,0.00,,,0.00,Wunderground v.1.15,2013-04-24 21:10:00,
2013-04-24 17:15:00,87.1,59.8,30.06,SE,144,0.0,0.0,40,0.00,,,0.00,Wunderground v.1.15,2013-04-24 21:15:00,
2013-04-24 17:20:00,88.4,61.7,30.06,SE,144,0.0,2.0,41,0.00,,,0.00,Wunderground v.1.15,2013-04-24 21:20:00,
2013-04-24 17:25:00,88.9,62.2,30.06,SE,144,0.0,2.0,41,0.00,,,0.00,Wunderground v.1.15,2013-04-24 21:25:00,
2013-04-24 17:30:00,89.7,62.2,30.06,SE,144,0.0,0.0,40,0.00,,,0.00,Wunderground v.1.15,2013-04-24 21:30:00,
2013-04-24 17:40:00,89.1,60.9,30.06,SE,144,0.0,0.0,39,0.00,,,0.00,Wunderground v.1.15,2013-04-24 21:40:00,
2013-04-24 17:45:00,88.3,60.9,30.06,SE,144,0.0,0.0,40,0.00,,,0.00,Wunderground v.1.15,2013-04-24 21:45:00,
2013-04-24 17:50:00,87.7,61.1,30.07,SE,144,0.0,0.0,41,0.00,,,0.00,Wunderground v.1.15,2013-04-24 21:50:00,
2013-04-24 17:55:00,87.3,61.4,30.07,SE,144,0.0,0.0,42,0.00,,,0.00,Wunderground v.1.15,2013-04-24 21:55:00,
2013-04-24 18:00:00,87.0,60.5,30.06,SE,144,0.0,0.0,41,0.00,,,0.00,Wunderground v.1.15,2013-04-24 22:00:00,
2013-04-24 18:10:00,87.6,60.3,30.06,SE,144,0.0,0.0,40,0.00,,,0.00,Wunderground v.1.15,2013-04-24 22:10:00,
2013-04-24 18:15:00,87.8,59.8,30.07,SE,144,0.0,2.0,39,0.00,,,0.00,Wunderground v.1.15,2013-04-24 22:15:00,
2013-04-24 18:20:00,87.4,60.8,30.07,SE,144,0.0,0.0,41,0.00,,,0.00,Wunderground v.1.15,2013-04-24 22:20:00,
2013-04-24 18:25:00,88.1,61.4,30.06,SE,144,0.0,1.0,41,0.00,,,0.00,Wunderground v.1.15,2013-04-24 22:25:00,
2013-04-24 18:35:00,88.9,59.3,30.07,SE,144,0.0,0.0,37,0.00,,,0.00,Wunderground v.1.15,2013-04-24 22:35:00,
2013-04-24 18:45:00,86.7,57.3,30.07,SE,144,0.0,0.0,37,0.00,,,0.00,Wunderground v.1.15,2013-04-24 22:45:00,
2013-04-24 18:50:00,86.3,57.7,30.07,SE,144,0.0,0.0,38,0.00,,,0.00,Wunderground v.1.15,2013-04-24 22:50:00,
2013-04-24 18:55:00,86.7,60.2,30.07,SE,144,0.0,0.0,41,0.00,,,0.00,Wunderground v.1.15,2013-04-24 22:55:00,
2013-04-24 19:00:00,85.9,59.5,30.07,SE,145,0.0,0.0,41,0.00,,,0.00,Wunderground v.1.15,2013-04-24 23:00:00,
2013-04-24 19:10:00,84.2,61.8,30.07,South,173,3.0,3.0,47,0.00,,,0.00,Wunderground v.1.15,2013-04-24 23:10:00,
2013-04-24 19:15:00,83.7,62.5,30.08,South,173,3.0,5.0,49,0.00,,,0.00,Wunderground v.1.15,2013-04-24 23:15:00,
2013-04-24 19:25:00,83.0,63.0,30.08,South,173,1.0,3.0,51,0.00,,,0.00,Wunderground v.1.15,2013-04-24 23:25:00,
2013-04-24 19:30:00,82.6,62.6,30.09,South,174,1.0,2.0,51,0.00,,,0.00,Wunderground v.1.15,2013-04-24 23:30:00,
2013-04-24 19:35:00,82.2,63.4,30.08,South,174,1.0,2.0,53,0.00,,,0.00,Wunderground v.1.15,2013-04-24 23:35:00,
2013-04-24 19:40:00,81.9,63.1,30.08,South,174,1.0,1.0,53,0.00,,,0.00,Wunderground v.1.15,2013-04-24 23:40:00,
2013-04-24 19:45:00,81.4,63.7,30.08,South,174,1.0,1.0,55,0.00,,,0.00,Wunderground v.1.15,2013-04-24 23:45:00,
2013-04-24 19:55:00,80.6,63.5,30.08,South,174,0.0,0.0,56,0.00,,,0.00,Wunderground v.1.15,2013-04-24 23:55:00,
2013-04-24 20:00:00,80.3,63.7,30.09,South,174,1.0,1.0,57,0.00,,,0.00,Wunderground v.1.15,2013-04-25 00:00:00,
2013-04-24 20:10:00,79.6,63.5,30.09,South,174,1.0,4.0,58,0.00,,,0.00,Wunderground v.1.15,2013-04-25 00:10:00,
2013-04-24 20:15:00,79.3,63.7,30.09,South,174,1.0,4.0,59,0.00,,,0.00,Wunderground v.1.15,2013-04-25 00:15:00,
2013-04-24 20:20:00,79.0,63.9,30.09,South,174,1.0,1.0,60,0.00,,,0.00,Wunderground v.1.15,2013-04-25 00:20:00,
2013-04-24 20:30:00,78.5,63.9,30.09,South,174,0.0,4.0,61,0.00,,,0.00,Wunderground v.1.15,2013-04-25 00:30:00,
2013-04-24 20:35:00,78.3,63.7,30.10,South,174,0.0,4.0,61,0.00,,,0.00,Wunderground v.1.15,2013-04-25 00:35:00,
2013-04-24 20:45:00,77.8,64.2,30.10,South,174,0.0,4.0,63,0.00,,,0.00,Wunderground v.1.15,2013-04-25 00:45:00,
2013-04-24 20:50:00,77.7,64.5,30.10,South,174,0.0,4.0,64,0.00,,,0.00,Wunderground v.1.15,2013-04-25 00:50:00,
2013-04-24 21:00:00,77.3,64.2,30.11,South,174,0.0,0.0,64,0.00,,,0.00,Wunderground v.1.15,2013-04-25 01:00:00,
2013-04-24 21:10:00,77.3,64.2,30.11,South,174,0.0,0.0,64,0.00,,,0.00,Wunderground v.1.15,2013-04-25 01:10:00,
2013-04-24 21:15:00,77.3,64.2,30.11,South,174,0.0,0.0,64,0.00,,,0.00,Wunderground v.1.15,2013-04-25 01:15:00,
2013-04-24 21:20:00,77.1,63.5,30.12,South,172,0.0,2.0,63,0.00,,,0.00,Wunderground v.1.15,2013-04-25 01:20:00,
2013-04-24 21:25:00,77.0,63.9,30.12,South,172,1.0,2.0,64,0.00,,,0.00,Wunderground v.1.15,2013-04-25 01:25:00,
2013-04-24 21:35:00,76.7,64.0,30.12,South,172,0.0,0.0,65,0.00,,,0.00,Wunderground v.1.15,2013-04-25 01:35:00,
2013-04-24 21:40:00,76.3,64.1,30.13,South,172,0.0,0.0,66,0.00,,,0.00,Wunderground v.1.15,2013-04-25 01:40:00,
2013-04-24 21:45:00,76.0,64.2,30.13,South,172,0.0,0.0,67,0.00,,,0.00,Wunderground v.1.15,2013-04-25 01:45:00,
2013-04-24 21:50:00,75.7,64.0,30.13,South,172,0.0,0.0,67,0.00,,,0.00,Wunderground v.1.15,2013-04-25 01:50:00,
2013-04-24 21:55:00,75.6,63.9,30.13,South,172,0.0,0.0,67,0.00,,,0.00,Wunderground v.1.15,2013-04-25 01:55:00,
2013-04-24 22:00:00,75.4,64.1,30.14,South,172,0.0,0.0,68,0.00,,,0.00,Wunderground v.1.15,2013-04-25 02:00:00,
2013-04-24 22:10:00,75.0,64.1,30.14,South,172,0.0,0.0,69,0.00,,,0.00,Wunderground v.1.15,2013-04-25 02:10:00,
2013-04-24 22:15:00,74.6,63.8,30.14,South,172,0.0,0.0,69,0.00,,,0.00,Wunderground v.1.15,2013-04-25 02:15:00,
2013-04-24 22:20:00,74.4,64.0,30.15,South,172,0.0,0.0,70,0.00,,,0.00,Wunderground v.1.15,2013-04-25 02:20:00,
2013-04-24 22:25:00,74.2,64.2,30.15,South,172,0.0,0.0,71,0.00,,,0.00,Wunderground v.1.15,2013-04-25 02:25:00,
2013-04-24 22:35:00,73.8,63.8,30.15,South,172,0.0,0.0,71,0.00,,,0.00,Wunderground v.1.15,2013-04-25 02:35:00,
2013-04-24 22:45:00,73.3,64.1,30.15,South,172,1.0,1.0,73,0.00,,,0.00,Wunderground v.1.15,2013-04-25 02:45:00,
2013-04-24 22:50:00,72.5,64.1,30.15,South,172,0.0,0.0,75,0.00,,,0.00,Wunderground v.1.15,2013-04-25 02:50:00,
2013-04-24 22:55:00,72.1,63.7,30.15,South,172,0.0,0.0,75,0.00,,,0.00,Wunderground v.1.15,2013-04-25 02:55:00,
2013-04-24 23:00:00,72.0,64.0,30.15,South,172,1.0,1.0,76,0.00,,,0.00,Wunderground v.1.15,2013-04-25 03:00:00,
2013-04-24 23:10:00,71.6,64.0,30.15,South,172,1.0,1.0,77,0.00,,,0.00,Wunderground v.1.15,2013-04-25 03:10:00,
2013-04-24 23:20:00,71.1,64.3,30.15,South,172,0.0,6.0,79,0.00,,,0.00,Wunderground v.1.15,2013-04-25 03:20:00,
2013-04-24 23:25:00,70.9,64.1,30.15,South,172,0.0,6.0,79,0.00,,,0.00,Wunderground v.1.15,2013-04-25 03:25:00,
2013-04-24 23:30:00,71.0,64.2,30.15,South,172,0.0,6.0,79,0.00,,,0.00,Wunderground v.1.15,2013-04-25 03:30:00,
2013-04-24 23:35:00,71.1,64.3,30.15,South,172,0.0,6.0,79,0.00,,,0.00,Wunderground v.1.15,2013-04-25 03:35:00,
2013-04-24 23:45:00,70.9,64.4,30.15,South,172,0.0,6.0,80,0.00,,,0.00,Wunderground v.1.15,2013-04-25 03:45:00,
2013-04-24 23:50:00,70.9,64.4,30.15,South,172,1.0,1.0,80,0.00,,,0.00,Wunderground v.1.15,2013-04-25 03:50:00,